Hourly Weather Bolshie Yaki

Today, 1 August, Sunday

Time Temperature Precipitation Wind Pressure Humidity
00:00 +20°C° 0 mm 3 mps 746 mmHg 69%
01:00 +19°C° 0 mm 3 mps 747 mmHg 71%
02:00 +19°C° 0 mm 3 mps 747 mmHg 72%
03:00 +18°C° 0 mm 3 mps 747 mmHg 75%
04:00 +19°C° 0 mm 3 mps 747 mmHg 73%
05:00 +19°C° 0 mm 3 mps 748 mmHg 72%
06:00 +20°C° 0 mm 2 mps 748 mmHg 70%
07:00 +21°C° 0 mm 3 mps 748 mmHg 63%
08:00 +24°C° 0 mm 3 mps 749 mmHg 56%
09:00 +26°C° 0 mm 4 mps 749 mmHg 50%
10:00 +27°C° 0 mm 4 mps 749 mmHg 47%
11:00 +27°C° 0 mm 5 mps 749 mmHg 44%
12:00 +28°C° 0 mm 5 mps 749 mmHg 41%
13:00 +28°C° 0 mm 5 mps 749 mmHg 41%
14:00 +28°C° 0 mm 5 mps 750 mmHg 42%
15:00 +28°C° 0 mm 5 mps 750 mmHg 43%
16:00 +28°C° 0 mm 4 mps 750 mmHg 47%
17:00 +27°C° 0 mm 4 mps 750 mmHg 51%
18:00 +26°C° 0 mm 3 mps 750 mmHg 56%
19:00 +24°C° 0 mm 3 mps 750 mmHg 59%
20:00 +23°C° 0 mm 2 mps 750 mmHg 63%
21:00 +20°C° 0 mm 2 mps 750 mmHg 67%
22:00 +20°C° 0 mm 2 mps 750 mmHg 68%
23:00 +19°C° 0 mm 2 mps 750 mmHg 68%

Tomorrow, 2 August, Monday

Time Temperature Precipitation Wind Pressure Humidity
00:00 +19°C° 0 mm 2 mps 751 mmHg 69%
01:00 +19°C° 0 mm 2 mps 751 mmHg 70%
02:00 +18°C° 0 mm 2 mps 751 mmHg 70%
03:00 +18°C° 0 mm 2 mps 751 mmHg 71%
04:00 +19°C° 0 mm 2 mps 751 mmHg 70%
05:00 +20°C° 0 mm 2 mps 751 mmHg 70%
06:00 +20°C° 0 mm 2 mps 751 mmHg 69%
07:00 +23°C° 0 mm 2 mps 751 mmHg 63%
08:00 +25°C° 0 mm 2 mps 751 mmHg 57%
09:00 +28°C° 0 mm 3 mps 751 mmHg 52%
10:00 +29°C° 0 mm 3 mps 751 mmHg 48%
11:00 +30°C° 0 mm 3 mps 751 mmHg 45%
12:00 +31°C° 0 mm 3 mps 751 mmHg 42%
13:00 +31°C° 0 mm 3 mps 751 mmHg 41%
14:00 +33°C° 0 mm 4 mps 750 mmHg 39%
15:00 +33°C° 0 mm 4 mps 750 mmHg 38%
16:00 +32°C° 0 mm 4 mps 750 mmHg 42%
17:00 +30°C° 0 mm 3 mps 750 mmHg 47%
18:00 +30°C° 0 mm 3 mps 750 mmHg 51%
19:00 +28°C° 0 mm 2 mps 749 mmHg 55%
20:00 +27°C° 0 mm 2 mps 749 mmHg 59%
21:00 +25°C° 0 mm 2 mps 749 mmHg 63%
22:00 +24°C° 0 mm 2 mps 749 mmHg 64%
23:00 +24°C° 0 mm 2 mps 749 mmHg 64%

Day after tomorrow, 3 August, Tuesday

Time Temperature Precipitation Wind Pressure Humidity
00:00 +23°C° 0 mm 2 mps 749 mmHg 65%
01:00 +23°C° 0 mm 2 mps 749 mmHg 64%
02:00 +21°C° 0 mm 2 mps 749 mmHg 62%
03:00 +21°C° 0 mm 2 mps 749 mmHg 61%
04:00 +23°C° 0 mm 2 mps 749 mmHg 62%
05:00 +23°C° 0 mm 2 mps 749 mmHg 64%
06:00 +24°C° 0 mm 2 mps 749 mmHg 65%
07:00 +26°C° 0 mm 3 mps 748 mmHg 58%
08:00 +29°C° 0 mm 4 mps 748 mmHg 50%
09:00 +32°C° 0 mm 5 mps 748 mmHg 43%
10:00 +34°C° 0 mm 5 mps 748 mmHg 39%
11:00 +35°C° 0 mm 5 mps 747 mmHg 34%
12:00 +38°C° 0 mm 6 mps 747 mmHg 30%
13:00 +38°C° 0 mm 6 mps 747 mmHg 30%
14:00 +38°C° 0 mm 6 mps 747 mmHg 29%
15:00 +37°C° 0 mm 5 mps 746 mmHg 29%
16:00 +35°C° 0 mm 5 mps 746 mmHg 35%
17:00 +34°C° 0 mm 4 mps 747 mmHg 41%
18:00 +32°C° 0 mm 4 mps 747 mmHg 48%
19:00 +29°C° 0 mm 3 mps 747 mmHg 52%
20:00 +27°C° 0 mm 3 mps 747 mmHg 56%
21:00 +26°C° 0 mm 2 mps 748 mmHg 60%
22:00 +24°C° 0.1 mm 2 mps 748 mmHg 68%
23:00 +23°C° 0.1 mm 2 mps 748 mmHg 76%

4 August, Wednesday

Time Temperature Precipitation Wind Pressure Humidity
00:00 +22°C° 0.1 mm 1 mps 748 mmHg 84%
01:00 +20°C° 0.3 mm 2 mps 748 mmHg 86%
02:00 +20°C° 0.3 mm 2 mps 748 mmHg 89%
03:00 +20°C° 0.3 mm 2 mps 748 mmHg 91%
04:00 +20°C° 0.3 mm 2 mps 749 mmHg 90%
05:00 +20°C° 0.3 mm 2 mps 749 mmHg 89%
06:00 +21°C° 0.3 mm 2 mps 749 mmHg 88%
07:00 +23°C° 0 mm 2 mps 749 mmHg 82%
08:00 +24°C° 0 mm 2 mps 749 mmHg 75%
09:00 +25°C° 0 mm 2 mps 749 mmHg 69%
10:00 +26°C° 0 mm 3 mps 749 mmHg 65%
11:00 +26°C° 0 mm 3 mps 749 mmHg 62%
12:00 +27°C° 0 mm 3 mps 749 mmHg 58%
13:00 +27°C° 0.3 mm 4 mps 749 mmHg 58%
14:00 +27°C° 0.3 mm 4 mps 749 mmHg 58%
15:00 +27°C° 0.3 mm 4 mps 749 mmHg 58%
16:00 +26°C° 0 mm 4 mps 749 mmHg 60%
17:00 +26°C° 0 mm 4 mps 749 mmHg 61%
18:00 +25°C° 0 mm 4 mps 749 mmHg 62%
19:00 +22°C° 0 mm 3 mps 750 mmHg 68%
20:00 +21°C° 0 mm 3 mps 750 mmHg 74%
21:00 +19°C° 0 mm 2 mps 750 mmHg 80%
22:00 +18°C° 0 mm 2 mps 750 mmHg 82%
23:00 +18°C° 0 mm 2 mps 751 mmHg 84%

5 August, Thursday

Time Temperature Precipitation Wind Pressure Humidity
00:00 +17°C° 0 mm 2 mps 751 mmHg 86%
01:00 +17°C° 0 mm 2 mps 751 mmHg 84%
02:00 +17°C° 0 mm 2 mps 751 mmHg 83%
03:00 +17°C° 0 mm 2 mps 751 mmHg 81%
04:00 +17°C° 0 mm 2 mps 752 mmHg 76%
05:00 +18°C° 0 mm 2 mps 752 mmHg 71%
06:00 +18°C° 0 mm 2 mps 752 mmHg 66%
07:00 +20°C° 0 mm 3 mps 752 mmHg 59%
08:00 +21°C° 0 mm 3 mps 753 mmHg 52%
09:00 +23°C° 0 mm 4 mps 753 mmHg 44%
10:00 +23°C° 0 mm 4 mps 753 mmHg 42%
11:00 +25°C° 0 mm 4 mps 753 mmHg 39%
12:00 +26°C° 0 mm 5 mps 753 mmHg 37%
13:00 +26°C° 0 mm 5 mps 753 mmHg 36%
14:00 +26°C° 0 mm 5 mps 753 mmHg 36%
15:00 +26°C° 0 mm 5 mps 753 mmHg 35%
16:00 +25°C° 0 mm 4 mps 753 mmHg 39%
17:00 +24°C° 0 mm 3 mps 753 mmHg 43%
18:00 +22°C° 0 mm 3 mps 753 mmHg 47%
19:00 +21°C° 0 mm 2 mps 753 mmHg 52%
20:00 +19°C° 0 mm 2 mps 753 mmHg 56%
21:00 +18°C° 0 mm 1 mps 753 mmHg 60%
22:00 +16°C° 0 mm 1 mps 753 mmHg 61%
23:00 +16°C° 0 mm 2 mps 754 mmHg 62%

6 August, Friday

Time Temperature Precipitation Wind Pressure Humidity
00:00 +15°C° 0 mm 2 mps 754 mmHg 63%
01:00 +15°C° 0 mm 1 mps 754 mmHg 65%
02:00 +14°C° 0 mm 1 mps 754 mmHg 67%
03:00 +14°C° 0 mm 1 mps 754 mmHg 69%
04:00 +14°C° 0 mm 1 mps 754 mmHg 69%
05:00 +15°C° 0 mm 1 mps 755 mmHg 68%
06:00 +16°C° 0 mm 1 mps 755 mmHg 67%
07:00 +18°C° 0 mm 1 mps 755 mmHg 62%
08:00 +18°C° 0 mm 2 mps 755 mmHg 57%
09:00 +20°C° 0 mm 2 mps 755 mmHg 52%
10:00 +20°C° 0 mm 2 mps 755 mmHg 51%
11:00 +20°C° 0 mm 2 mps 755 mmHg 51%
12:00 +20°C° 0 mm 2 mps 755 mmHg 50%
13:00 +21°C° 0 mm 2 mps 755 mmHg 46%
14:00 +23°C° 0 mm 2 mps 755 mmHg 42%
15:00 +24°C° 0 mm 3 mps 755 mmHg 37%
16:00 +23°C° 0 mm 2 mps 755 mmHg 42%
17:00 +21°C° 0 mm 2 mps 755 mmHg 46%
18:00 +20°C° 0 mm 2 mps 755 mmHg 51%
19:00 +19°C° 0 mm 2 mps 755 mmHg 54%
20:00 +17°C° 0 mm 2 mps 755 mmHg 57%
21:00 +16°C° 0 mm 2 mps 755 mmHg 60%
22:00 +15°C° 0 mm 2 mps 756 mmHg 62%
23:00 +14°C° 0 mm 2 mps 756 mmHg 64%
Show more

We Need Your Consent

Meteoprog and our Service Providers may store and access personal data such as cookies, device identifiers or other similar technologies on your device and process such data to personalise content and ads, as well as provide social media features and to analyse the traffic.

  • Store and/or access information on your device

    Cookies, device identifiers or other information can be stored or accessed on your device for the purposes indicated above.

  • Personalised ads and content, ad and content measurement, audience insights, and products development

    Ads and content can be personalised based on a profile. More data can be added to better personalise ads and content. Ad and content performance can be measured. Insights about the audience who saw the ads and content can be derived. Such data can be used to develop or improve user’s experience, systems and software.

By clicking ‘I Agree’ you will allow the use of indicated cookies, device identifiers, web beacons or other similar technologies. Your settings can be changed in the browser on your device.

For certain purposes, legitimate interests may be relied on, rather than consent. You can read more about this in our Privacy and Cookie Policy.